FW4383 Weather Reports


Display with metric or nautical units.
time (UTC)temp
F
wind
direction
speed
MPH
gust
MPH
rain 1hr
in
rain 24hr
in
rain mn
in
humidity
%
barometer
mb
20260901231537 68 273 11.0 22.0 0.00 0.00 0.00 60 1011.8
20260901230035 68 265 12.0 25.0 0.00 0.00 0.00 60 1011.9
20260901224537 68 268 12.0 20.0 0.00 0.00 0.00 61 1011.8
20260901221534 66 269 13.0 23.0 0.00 0.00 0.00 63 1011.4
20260901213035 68 277 13.0 25.0 0.00 0.00 0.00 60 1011.3
20260901211648 68 269 15.0 27.0 0.00 0.00 0.00 60 1011.4
20260901210031 68 279 15.0 31.0 0.00 0.00 0.00 59 1011.4
20260901204534 68 269 14.0 27.0 0.00 0.00 0.00 59 1011.5
20260901200035 67 275 12.0 24.0 0.00 0.00 0.00 60 1011.8
20260901193032 67 272 12.0 27.0 0.00 0.00 0.00 62 1012.4
20260901191534 67 278 12.0 26.0 0.00 0.00 0.00 63 1012.6
20260901190036 66 278 12.0 26.0 0.00 0.00 0.00 63 1012.7
20260901184538 66 273 11.0 20.0 0.00 0.00 0.00 64 1012.7
20260901183035 66 273 12.0 24.0 0.00 0.00 0.00 65 1012.9
20260901181536 65 279 9.0 19.0 0.00 0.00 0.00 66 1013.0
20260901174533 64 266 11.0 22.0 0.00 0.00 0.00 69 1013.2
20260901173032 64 272 8.0 18.0 0.00 0.00 0.00 70 1013.2
20260901171534 62 275 11.0 21.0 0.00 0.00 0.00 72 1013.2
20260901170036 62 272 10.0 25.0 0.00 0.00 0.00 74 1013.2
20260901164608 61 269 10.0 21.0 0.00 0.00 0.00 75 1013.2
20260901163037 61 272 10.0 21.0 0.00 0.00 0.00 75 1013.2
20260901161617 61 267 11.0 23.0 0.00 0.00 0.00 75 1013.2
20260901160031 60 269 8.0 18.0 0.00 0.00 0.00 76 1013.0
20260901154534 60 269 8.0 17.0 0.00 0.00 0.00 77 1013.0
20260901153037 59 270 6.0 14.0 0.00 0.00 0.00 78 1013.1
20260901151536 59 267 6.0 13.0 0.00 0.00 0.00 78 1013.1
20260901144535 59 256 6.0 12.0 0.00 0.00 0.00 79 1012.9
20260901143035 59 255 7.0 13.0 0.00 0.00 0.00 79 1012.8
20260901140033 60 264 7.0 13.0 0.00 0.00 0.00 78 1012.5
20260901134641 60 259 7.0 17.0 0.00 0.00 0.00 77 1012.4
20260901133034 60 269 7.0 19.0 0.00 0.00 0.00 76 1012.2
20260901131535 60 258 7.0 16.0 0.00 0.00 0.00 76 1012.1
20260901124534 61 241 6.0 11.0 0.00 0.00 0.00 75 1011.8
20260901123035 61 251 6.0 14.0 0.00 0.00 0.00 74 1011.8
20260901121649 62 252 8.0 16.0 0.00 0.00 0.00 73 1011.8
20260901120034 62 259 9.0 18.0 0.00 0.00 0.00 73 1011.8
20260901114606 62 259 8.0 20.0 0.00 0.00 0.00 71 1011.7
20260901113030 63 251 8.0 17.0 0.00 0.00 0.00 70 1011.7
20260901111537 63 263 9.0 22.0 0.00 0.00 0.00 69 1011.5
20260901110036 64 265 10.0 20.0 0.00 0.00 0.00 69 1011.4
20260901101535 65 278 11.0 18.0 0.00 0.00 0.00 66 1011.3
20260901100035 66 269 9.0 18.0 0.00 0.00 0.00 65 1011.1
20260901094532 66 267 9.0 18.0 0.00 0.00 0.00 65 1011.2
20260901093034 66 256 6.0 18.0 0.00 0.00 0.00 65 1011.3
20260901091607 66 249 5.0 12.0 0.00 0.00 0.00 65 1011.2
20260901090037 64 239 4.0 13.0 0.00 0.00 0.00 70 1011.0
20260901084530 56 188 2.0 11.0 0.00 0.00 0.00 76 1011.2
20260901083034 55 214 1.0 8.0 0.00 0.00 0.00 78 1011.2
20260901081536 53 185 1.0 5.0 0.00 0.00 0.00 81 1011.3
20260901080035 53 221 1.0 5.0 0.00 0.00 0.00 82 1011.1
20260901074536 53 252 0.0 5.0 0.00 0.00 0.00 80 1011.0
20260901073033 54 136 0.0 3.0 0.00 0.00 0.00 79 1010.9
20260901071530 54 265 0.0 4.0 0.00 0.00 0.00 77 1010.8
20260901070145 55 270 0.0 0.0 0.00 0.00 0.00 75 1010.7
20260901064535 56 270 0.0 0.0 0.00 0.00 0.00 74 1010.8
20260901063031 56 267 0.0 4.0 0.00 0.00 0.00 74 1010.9
20260901054536 57 169 1.0 4.0 0.00 0.00 0.00 72 1010.9
20260901053037 57 157 0.0 2.0 0.00 0.00 0.00 71 1010.8
20260901051651 58 113 0.0 2.0 0.00 0.00 0.00 71 1010.8
20260901050034 59 326 0.0 3.0 0.00 0.00 0.00 69 1010.8
20260901044608 60 50 0.0 3.0 0.00 0.00 0.00 68 1010.7
20260901043035 61 125 0.0 4.0 0.00 0.00 0.00 66 1010.5
20260901041535 61 228 0.0 4.0 0.00 0.00 0.00 65 1010.4
20260901040031 62 201 0.0 2.0 0.00 0.00 0.00 64 1010.1
20260901034535 64 225 0.0 2.0 0.00 0.00 0.00 61 1010.0
20260901033144 64 204 0.0 3.0 0.00 0.00 0.00 59 1009.8
20260901031536 66 167 1.0 4.0 0.00 0.00 0.00 56 1009.7
20260901030033 68 180 0.0 2.0 0.00 0.00 0.00 52 1009.4
20260901024533 68 180 2.0 3.0 0.00 0.00 0.00 52 1009.3
20260901023031 69 175 1.0 3.0 0.00 0.00 0.00 54 1009.1
20260901021534 71 237 0.0 2.0 0.00 0.00 0.00 50 1009.1
20260901020032 75 247 0.0 1.0 0.00 0.00 0.00 45 1009.1
20260901014535 80 247 0.0 0.0 0.00 0.00 0.00 39 1009.1
20260901013034 85 247 0.0 3.0 0.00 0.00 0.00 30 1009.1
20260901011535 88 247 2.0 4.0 0.00 0.00 0.00 24 1009.2
20260901010032 90 247 1.0 2.0 0.00 0.00 0.00 22 1009.3
20260901004609 91 184 1.0 4.0 0.00 0.00 0.00 26 1009.5
20260901003038 90 138 0.0 5.0 0.00 0.00 0.00 25 1009.6
20260901001605 91 88 0.0 5.0 0.00 0.00 0.00 26 1009.7
20260901000035 90 355 1.0 5.0 0.00 0.00 0.00 26 1009.8
20260831234535 90 33 2.0 6.0 0.00 0.00 0.00 27 1009.9
20260831233152 89 48 2.0 5.0 0.00 0.00 0.00 27 1010.1